Tracking 30994 objects as of 8-Jul-2025
HD Live streaming from Space Station
objects crossing your sky now

DELTA 1 DEB

Track DELTA 1 DEB now!
10-day predictions


NORAD ID: 7050
Int'l Code: 1973-086AS
Perigee: 1,402.2 km
Apogee: 1,474.9 km
Inclination: 101.6 °
Period: 114.5 minutes
Semi major axis: 7809 km
RCS: 0.1002 m2 (medium)
Launch date: November 6, 1973
Source: United States (US)
Launch site: AIR FORCE WESTERN TEST RANGE (AFWTR)

Note: This is SATELLITE DEBRIS
Your satellite tracking list
Your tracking list is empty




NASA's NSSDC Master Catalog

Two Line Element Set (TLE):
1  7050U 73086AS  25188.85079907  .00000337  00000-0  22490-2 0  9997
2  7050 101.6292 167.4131 0046511 148.0824 272.9562 12.57951174355415
Source of the keplerian elements: AFSPC